Regional Weather Roundup
Issued by NWS

Home | Current Version | Previous Version | Graphics & Text | Print | Product List | Glossary On
Versions: 1 2 3 4 5 6 7 8 9 10 11 12 13 14 15 16 17 18 19 20 21 22 23 24 25 26 27 28 29 30 31 32 33 34 35 36 37 38 39 40 41 42 43 44 45 46 47 48 49 50
000
ASUS43 KLOT 201910
RWRIL

ILLINOIS REGIONAL WEATHER ROUNDUP
NATIONAL WEATHER SERVICE CHICAGO/ROMEOVILLE IL
200 PM CDT WED AUG 20 2014

NOTE: "FAIR" INDICATES FEW OR NO CLOUDS BELOW 12,000 FEET WITH NO
SIGNIFICANT WEATHER AND/OR OBSTRUCTIONS TO VISIBILITY.

* THESE STATIONS ARE NOT UNDER NWS QUALITY CONTROL. THEY ALSO MAY NOT
  REPORT WEATHER SUCH AS PRECIPITATION OR FOG.

ILZ001-002-007-009-015-016-024-202000-
NORTHWEST ILLINOIS

CITY           SKY/WX    TMP DP  RH WIND       PRES   REMARKS
MOLINE         LGT RAIN  77  70  79 SE7       29.87F
STERLING*      PTSUNNY   82  66  57 W5        29.89F HX  85
SAVANNA*       PTSUNNY   82  65  55 W5        29.88F HX  84
$$

ILZ003-004-008-010-011-017-018-202000-
NORTH CENTRAL ILLINOIS

CITY           SKY/WX    TMP DP  RH WIND       PRES   REMARKS
ROCKFORD       PTSUNNY   85  65  51 SW10      29.91F HX  86
FREEPORT*      MOSUNNY   83  69  62 SW6       29.91F HX  86
ROCHELLE*      PTSUNNY   82  66  59 SW6       29.92S HX  84
DE KALB*       PTSUNNY   81  65  59 SW9       29.92F HX  83
PERU*          PTSUNNY   83  65  55 W5        29.91F HX  85
$$

ILZ005-006-012>014-019>023-202000-
NORTHEAST ILLINOIS

CITY           SKY/WX    TMP DP  RH WIND       PRES   REMARKS
CHICAGO-OHARE  PTSUNNY   85  64  49 SW14      29.89F HX  86
CHICAGO-MIDWAY PTSUNNY   85  67  54 SW14G25   29.90F HX  87
AURORA         PTSUNNY   84  65  52 W13       29.92S HX  86
LANSING*       MOSUNNY   84  65  53 W13G18    29.91F HX  86
JOLIET*        PTSUNNY   83  64  51 W7        29.93R HX  84
WAUKEGAN       MOSUNNY   82  65  56 VRB5      29.88F HX  84
DUPAGE AIRPORT MOSUNNY   85  67  54 SW15      29.91F HX  87
KANKAKEE*      PTSUNNY   83  69  62 SW8       29.94S HX  87
WHEELING       MOSUNNY   85  67  54 W9        29.90F HX  87
MORRIS*        PTSUNNY   85  67  55 SW10      29.92F HX  87
ROMEOVILLE*    PTSUNNY   83  66  57 SW10      29.92S HX  85
NORTHERLY ISL    N/A     84  62  47 SW7         N/A  HX  85
$$

LMZ740>746-202000-
SOUTHERN LAKE MICHIGAN

STATION/POSITION SKY/WX   TEMP    WIND        PRES    VSBY  WAVE
                          AIR SEA DIR/SP/G                  HT/PER
                          (F)     (DEG/KT/KT) (MB)    (MI)  (FT/S)
SOUTHERN BUOY              69 69  140/  6/  6 1012.9F         0
WAUKEGAN HARBOR            81     240/ 10/ 18   N/A
HARRISON CRIB              81     240/ 13/ 17   N/A
BURNHAM HARBOR             83     220/  8/ 15   N/A
CALUMET HARBOR             84     230/  9/ 15 1011.5F
BURNS HARBOR               81     240/ 15/ 18   N/A
MICHIGAN CITY              79     230/  1/  2   N/A
MICHIGAN CITY 6N           77 73  150/  2/  4   N/A           0
ST. JOSEPH                 73 71   90/  2/  4   N/A           1
$$

ILZ025>027-034>036-040-047-049-050-058-095>099-202000-
WEST-CENTRAL ILLINOIS

CITY           SKY/WX    TMP DP  RH WIND       PRES   REMARKS
QUINCY         PTSUNNY   80  71  74 SE8       29.95S HX  84
GALESBURG*     CLOUDY    78  71  77 S10       29.93R HX  80
MACOMB*        CLOUDY    73  71  96 S7        29.96S
JACKSONVILLE*  CLOUDY    77  72  85 S7        29.98S
PITTSFIELD*    PTSUNNY   81  73  76 SE7       29.97F HX  86
$$

ILZ028>032-037-038-041>044-048-051>054-059>061-202000-
CENTRAL ILLINOIS

CITY           SKY/WX    TMP DP  RH WIND       PRES   REMARKS
PONTIAC        CLOUDY    81  72  74 SW3       29.93F HX  84
DECATUR        CLOUDY    72  69  90 SW7       29.99R
PEORIA         CLOUDY    75  69  81 S14       29.94S
LACON*         CLOUDY    79  70  73 S6        29.89F HX  81
LINCOLN*       CLOUDY    73  70  90 S5        29.93F
SPRINGFIELD    CLOUDY    74  71  91 SW7       29.97R
TAYLORVILLE    CLOUDY    70  68  94 S7        29.98F
$$

ILZ033-039-045-046-055>057-062-063-202000-
EAST-CENTRAL ILLINOIS

CITY           SKY/WX    TMP DP  RH WIND       PRES   REMARKS
CHAMPAIGN      CLOUDY    74  70  87 SW8       29.98R
DANVILLE*      RAIN      72  70  94 SW13G18   29.93S
RANTOUL*       CLOUDY    77  70  78 SW10      29.97R
MATTOON        CLOUDY    71  68  90 CALM      30.00R
PARIS*         LGT RAIN  71  71  99 S3        29.98F
$$

ILZ079-100>102-202000-
SOUTHWEST ILLINOIS

CITY           SKY/WX    TMP DP  RH WIND       PRES   REMARKS
ALTON          CLOUDY    79  73  83 SE14      29.98F HX  82
BELLEVILLE     MOSUNNY   81  72  74 E10       29.99R HX  84
CAHOKIA*       CLOUDY    83  73  72 E12       29.97S HX  89
SPARTA*        PTSUNNY   86  75  69 CALM      29.99F HX  95
$$

ILZ064>066-069>071-074>076-080>082-084>086-088>090-092>094-202000-
SOUTH-CENTRAL ILLINOIS

CITY           SKY/WX    TMP DP  RH WIND       PRES   REMARKS
CARBONDALE     PTSUNNY   88  75  65 SW5       29.98F HX  97
CAIRO*         MOSUNNY   93  77  58 SW5       29.99F HX 107
MARION         PTSUNNY   88  75  66 CALM      30.00F HX  97
MT. VERNON     CLOUDY    79  66  65 NE12      30.03S HX  81
CENTRALIA*     CLOUDY    83  67  60 E7        30.02S HX  85
SALEM*         CLOUDY    77  69  74 E6        30.02S
$$

ILZ067-068-072-073-078-083-087-091-202000-
SOUTHEAST ILLINOIS

CITY           SKY/WX    TMP DP  RH WIND       PRES   REMARKS
LAWRENCEVILLE  LGT RAIN  71  67  87 CALM      30.03F
FLORA*         CLOUDY    72  69  88 SE5       30.02F
FAIRFIELD*     CLOUDY    75  72  88 NE9       30.01F
HARRISBURG*    CLOUDY    86  75  69 CALM      30.01S HX  96
ROBINSON*      LGT RAIN  73  72  94 E6        30.02F
CARMI*         CLOUDY    82  72  69 N13G20    30.02R HX  87
$$

ABBREVIATIONS USED IN REMARKS
   TC - TEMPERATURE IN CELSIUS
  WCI - WIND CHILL INDEX
   HX - HEAT INDEX
  VSB - VISIBILITY
$$



USA.gov is the U.S. government's official web portal to all federal, state and local government web resources and services.